Time,TemperatureF,DewpointF,PressureIn,WindDirection,WindDirectionDegrees,WindSpeedMPH,WindSpeedGustMPH,Humidity,HourlyPrecipIn,Conditions,Clouds,dailyrainin,SoftwareType,DateUTC
2013-03-03 00:01:00,26.0,20.0,30.03,North,5,4.0,-999.0,77,-99.99,,,0.00,weatherlink.com 1.10,2013-03-03 05:01:00,
2013-03-03 00:16:00,25.9,20.0,30.03,NNW,328,5.0,-999.0,77,-99.99,,,0.00,weatherlink.com 1.10,2013-03-03 05:16:00,
2013-03-03 00:31:00,25.8,20.0,30.03,NNE,18,3.0,-999.0,77,-99.99,,,0.00,weatherlink.com 1.10,2013-03-03 05:31:00,
2013-03-03 00:46:00,25.8,19.0,30.03,NNW,336,3.0,-999.0,76,-99.99,,,0.00,weatherlink.com 1.10,2013-03-03 05:46:00,
2013-03-03 01:01:00,25.9,19.0,30.03,NNW,332,1.0,-999.0,76,-99.99,,,0.00,weatherlink.com 1.10,2013-03-03 06:01:00,
2013-03-03 01:16:00,26.0,19.0,30.03,North,355,7.0,-999.0,76,-99.99,,,0.00,weatherlink.com 1.10,2013-03-03 06:16:00,
2013-03-03 01:31:00,26.0,19.0,30.03,NNW,337,3.0,-999.0,76,-99.99,,,0.00,weatherlink.com 1.10,2013-03-03 06:31:00,
2013-03-03 01:46:00,26.0,19.0,30.03,NNW,339,2.0,-999.0,75,-99.99,,,0.00,weatherlink.com 1.10,2013-03-03 06:46:00,
2013-03-03 02:01:00,25.8,19.0,30.03,North,355,2.0,-999.0,75,-99.99,,,0.00,weatherlink.com 1.10,2013-03-03 07:01:00,
2013-03-03 02:16:00,25.7,19.0,30.02,NNE,12,1.0,-999.0,75,-99.99,,,0.00,weatherlink.com 1.10,2013-03-03 07:16:00,
2013-03-03 02:31:00,25.5,19.0,30.03,North,360,2.0,-999.0,76,-99.99,,,0.00,weatherlink.com 1.10,2013-03-03 07:31:00,
2013-03-03 02:46:00,25.5,19.0,30.02,NNW,346,1.0,-999.0,76,-99.99,,,0.00,weatherlink.com 1.10,2013-03-03 07:46:00,
2013-03-03 03:01:00,25.6,19.0,30.01,North,360,0.0,-999.0,76,-99.99,,,0.00,weatherlink.com 1.10,2013-03-03 08:01:00,
2013-03-03 03:16:00,25.5,19.0,30.01,NNW,327,6.0,-999.0,76,-99.99,,,0.00,weatherlink.com 1.10,2013-03-03 08:16:00,
2013-03-03 03:31:00,25.4,19.0,30.01,North,351,3.0,-999.0,76,-99.99,,,0.00,weatherlink.com 1.10,2013-03-03 08:31:00,
2013-03-03 03:46:00,25.3,19.0,30.01,NNW,329,11.0,-999.0,76,-99.99,,,0.00,weatherlink.com 1.10,2013-03-03 08:46:00,
2013-03-03 04:01:00,25.4,19.0,30.01,North,5,0.0,-999.0,76,-99.99,,,0.00,weatherlink.com 1.10,2013-03-03 09:01:00,
2013-03-03 04:16:00,25.4,19.0,30.01,NNW,329,2.0,-999.0,76,-99.99,,,0.00,weatherlink.com 1.10,2013-03-03 09:16:00,
2013-03-03 04:31:00,25.4,19.0,30.01,NNW,344,0.0,-999.0,75,-99.99,,,0.00,weatherlink.com 1.10,2013-03-03 09:31:00,
2013-03-03 04:46:00,25.4,19.0,30.01,NE,40,0.0,-999.0,75,-99.99,,,0.00,weatherlink.com 1.10,2013-03-03 09:46:00,
2013-03-03 05:01:00,25.3,18.0,30.01,North,360,0.0,-999.0,75,-99.99,,,0.00,weatherlink.com 1.10,2013-03-03 10:01:00,
2013-03-03 05:16:00,25.2,18.0,30.01,NNW,332,5.0,-999.0,75,-99.99,,,0.00,weatherlink.com 1.10,2013-03-03 10:16:00,
2013-03-03 05:31:00,25.1,18.0,30.01,NNW,340,4.0,-999.0,75,-99.99,,,0.00,weatherlink.com 1.10,2013-03-03 10:31:00,
2013-03-03 05:46:00,25.0,18.0,30.01,NNW,348,0.0,-999.0,75,-99.99,,,0.00,weatherlink.com 1.10,2013-03-03 10:46:00,
2013-03-03 06:01:00,24.8,18.0,30.01,North,355,4.0,-999.0,76,-99.99,,,0.00,weatherlink.com 1.10,2013-03-03 11:01:00,
2013-03-03 06:16:00,24.5,18.0,30.01,North,5,0.0,-999.0,76,-99.99,,,0.00,weatherlink.com 1.10,2013-03-03 11:16:00,
2013-03-03 06:31:00,24.1,18.0,30.01,North,355,2.0,-999.0,77,-99.99,,,0.00,weatherlink.com 1.10,2013-03-03 11:31:00,
2013-03-03 06:46:00,23.9,18.0,30.02,NNW,346,1.0,-999.0,78,-99.99,,,0.00,weatherlink.com 1.10,2013-03-03 11:46:00,
2013-03-03 07:01:00,23.8,18.0,30.02,North,355,2.0,-999.0,78,-99.99,,,0.00,weatherlink.com 1.10,2013-03-03 12:01:00,
2013-03-03 07:16:00,23.7,18.0,30.02,North,355,1.0,-999.0,79,-99.99,,,0.00,weatherlink.com 1.10,2013-03-03 12:16:00,
2013-03-03 07:31:00,23.8,19.0,30.02,NNW,348,0.0,-999.0,80,-99.99,,,0.00,weatherlink.com 1.10,2013-03-03 12:31:00,
2013-03-03 07:46:00,23.8,19.0,30.02,NNW,348,0.0,-999.0,80,-99.99,,,0.00,weatherlink.com 1.10,2013-03-03 12:46:00,
2013-03-03 08:01:00,23.8,19.0,30.02,North,355,0.0,-999.0,81,-99.99,,,0.00,weatherlink.com 1.10,2013-03-03 13:01:00,
2013-03-03 08:16:00,23.8,19.0,30.02,NNW,334,4.0,-999.0,81,-99.99,,,0.00,weatherlink.com 1.10,2013-03-03 13:16:00,
2013-03-03 08:31:00,24.0,19.0,30.02,NNW,340,3.0,-999.0,81,-99.99,,,0.00,weatherlink.com 1.10,2013-03-03 13:31:00,
2013-03-03 08:46:00,24.4,19.0,30.02,NNW,345,2.0,-999.0,81,-99.99,,,0.00,weatherlink.com 1.10,2013-03-03 13:46:00,
2013-03-03 09:01:00,24.9,20.0,30.03,NNE,13,2.0,-999.0,81,-99.99,,,0.00,weatherlink.com 1.10,2013-03-03 14:01:00,
2013-03-03 09:16:00,25.0,20.0,30.03,NNW,327,7.0,-999.0,80,-99.99,,,0.00,weatherlink.com 1.10,2013-03-03 14:16:00,
2013-03-03 09:31:00,25.4,20.0,30.03,NW,309,9.0,-999.0,80,-99.99,,,0.00,weatherlink.com 1.10,2013-03-03 14:31:00,
2013-03-03 09:46:00,25.4,20.0,30.03,North,360,3.0,-999.0,79,-99.99,,,0.00,weatherlink.com 1.10,2013-03-03 14:46:00,
2013-03-03 10:01:00,25.4,19.0,30.03,North,5,3.0,-999.0,78,-99.99,,,0.00,weatherlink.com 1.10,2013-03-03 15:01:00,
2013-03-03 10:16:00,25.5,20.0,30.03,NW,317,6.0,-999.0,78,-99.99,,,0.00,weatherlink.com 1.10,2013-03-03 15:16:00,
2013-03-03 10:31:00,25.9,20.0,30.03,NW,326,0.0,-999.0,77,-99.99,,,0.00,weatherlink.com 1.10,2013-03-03 15:31:00,
2013-03-03 10:46:00,26.2,20.0,30.03,NNW,335,0.0,-999.0,77,-99.99,,,0.00,weatherlink.com 1.10,2013-03-03 15:46:00,
2013-03-03 11:01:00,26.4,20.0,30.03,North,355,3.0,-999.0,76,-99.99,,,0.00,weatherlink.com 1.10,2013-03-03 16:01:00,
2013-03-03 11:16:00,27.6,21.0,30.02,NW,308,6.0,-999.0,76,-99.99,,,0.00,weatherlink.com 1.10,2013-03-03 16:16:00,
2013-03-03 11:31:00,28.1,21.0,30.02,North,350,7.0,-999.0,74,-99.99,,,0.00,weatherlink.com 1.10,2013-03-03 16:31:00,
2013-03-03 11:46:00,28.3,21.0,30.03,NW,313,11.0,-999.0,74,-99.99,,,0.00,weatherlink.com 1.10,2013-03-03 16:46:00,
2013-03-03 12:01:00,29.1,21.0,30.02,NW,306,4.0,-999.0,73,-99.99,,,0.00,weatherlink.com 1.10,2013-03-03 17:01:00,
2013-03-03 12:16:00,29.4,21.0,30.02,NNW,327,11.0,-999.0,72,-99.99,,,0.00,weatherlink.com 1.10,2013-03-03 17:16:00,
2013-03-03 12:31:00,30.4,22.0,30.02,NNW,346,12.0,-999.0,72,-99.99,,,0.00,weatherlink.com 1.10,2013-03-03 17:31:00,
2013-03-03 12:46:00,30.3,22.0,30.01,West,277,4.0,-999.0,72,-99.99,,,0.00,weatherlink.com 1.10,2013-03-03 17:46:00,
2013-03-03 13:02:00,30.4,22.0,30.00,NNE,24,9.0,-999.0,71,-99.99,,,0.00,weatherlink.com 1.10,2013-03-03 18:02:00,
2013-03-03 13:17:00,30.4,22.0,29.99,NW,325,10.0,-999.0,71,-99.99,,,0.00,weatherlink.com 1.10,2013-03-03 18:17:00,
2013-03-03 13:31:00,30.6,22.0,29.99,NNW,333,3.0,-999.0,70,-99.99,,,0.00,weatherlink.com 1.10,2013-03-03 18:31:00,
2013-03-03 13:47:00,30.6,22.0,29.98,North,5,2.0,-999.0,70,-99.99,,,0.00,weatherlink.com 1.10,2013-03-03 18:47:00,
2013-03-03 14:02:00,30.4,21.0,29.98,NNW,337,7.0,-999.0,69,-99.99,,,0.00,weatherlink.com 1.10,2013-03-03 19:02:00,
2013-03-03 14:17:00,30.8,22.0,29.98,NNW,344,6.0,-999.0,69,-99.99,,,0.00,weatherlink.com 1.10,2013-03-03 19:17:00,
2013-03-03 14:32:00,32.2,23.0,29.98,North,360,5.0,-999.0,69,-99.99,,,0.00,weatherlink.com 1.10,2013-03-03 19:32:00,
2013-03-03 14:47:00,32.2,23.0,29.99,NW,314,4.0,-999.0,68,-99.99,,,0.00,weatherlink.com 1.10,2013-03-03 19:47:00,
2013-03-03 15:02:00,32.1,23.0,29.98,NNW,332,1.0,-999.0,68,-99.99,,,0.00,weatherlink.com 1.10,2013-03-03 20:02:00,
2013-03-03 15:17:00,32.3,22.0,29.98,NNW,337,6.0,-999.0,67,-99.99,,,0.00,weatherlink.com 1.10,2013-03-03 20:17:00,
2013-03-03 15:32:00,32.4,23.0,29.98,NW,325,8.0,-999.0,67,-99.99,,,0.00,weatherlink.com 1.10,2013-03-03 20:32:00,
2013-03-03 15:47:00,32.0,22.0,29.98,NNW,328,0.0,-999.0,66,-99.99,,,0.00,weatherlink.com 1.10,2013-03-03 20:47:00,
2013-03-03 16:02:00,32.9,23.0,29.98,WSW,240,11.0,-999.0,66,-99.99,,,0.00,weatherlink.com 1.10,2013-03-03 21:02:00,
2013-03-03 16:17:00,32.6,22.0,29.98,West,274,6.0,-999.0,66,-99.99,,,0.00,weatherlink.com 1.10,2013-03-03 21:17:00,
2013-03-03 16:32:00,32.3,22.0,29.98,NW,305,3.0,-999.0,65,-99.99,,,0.00,weatherlink.com 1.10,2013-03-03 21:32:00,
2013-03-03 16:47:00,32.4,22.0,29.98,NNW,337,5.0,-999.0,65,-99.99,,,0.00,weatherlink.com 1.10,2013-03-03 21:47:00,
2013-03-03 17:02:00,32.2,21.0,29.99,NNE,16,6.0,-999.0,64,-99.99,,,0.00,weatherlink.com 1.10,2013-03-03 22:02:00,
2013-03-03 17:17:00,31.5,21.0,29.98,NW,322,11.0,-999.0,64,-99.99,,,0.00,weatherlink.com 1.10,2013-03-03 22:17:00,
2013-03-03 17:32:00,31.6,21.0,29.99,North,10,5.0,-999.0,64,-99.99,,,0.00,weatherlink.com 1.10,2013-03-03 22:32:00,
2013-03-03 17:47:00,31.2,20.0,29.99,West,262,6.0,-999.0,64,-99.99,,,0.00,weatherlink.com 1.10,2013-03-03 22:47:00,
2013-03-03 18:02:00,31.1,21.0,29.99,NNW,338,3.0,-999.0,65,-99.99,,,0.00,weatherlink.com 1.10,2013-03-03 23:02:00,
2013-03-03 18:17:00,30.5,20.0,30.00,NW,313,0.0,-999.0,65,-99.99,,,0.00,weatherlink.com 1.10,2013-03-03 23:17:00,
2013-03-03 18:32:00,30.0,19.0,30.00,WNW,300,0.0,-999.0,65,-99.99,,,0.00,weatherlink.com 1.10,2013-03-03 23:32:00,
2013-03-03 18:47:00,29.5,19.0,30.01,NW,326,0.0,-999.0,66,-99.99,,,0.00,weatherlink.com 1.10,2013-03-03 23:47:00,
2013-03-03 19:02:00,29.1,19.0,30.01,NNW,336,0.0,-999.0,66,-99.99,,,0.00,weatherlink.com 1.10,2013-03-04 00:02:00,
2013-03-03 19:17:00,28.6,19.0,30.01,NNW,336,0.0,-999.0,67,-99.99,,,0.00,weatherlink.com 1.10,2013-03-04 00:17:00,
2013-03-03 19:32:00,28.3,19.0,30.01,NNW,336,0.0,-999.0,68,-99.99,,,0.00,weatherlink.com 1.10,2013-03-04 00:32:00,
2013-03-03 19:47:00,27.8,18.0,30.02,NNW,336,0.0,-999.0,68,-99.99,,,0.00,weatherlink.com 1.10,2013-03-04 00:47:00,
2013-03-03 20:02:00,27.3,18.0,30.02,NNW,336,0.0,-999.0,69,-99.99,,,0.00,weatherlink.com 1.10,2013-03-04 01:02:00,
2013-03-03 20:17:00,27.1,19.0,30.02,NNW,336,0.0,-999.0,70,-99.99,,,0.00,weatherlink.com 1.10,2013-03-04 01:17:00,
2013-03-03 20:32:00,27.0,19.0,30.03,NNW,336,0.0,-999.0,71,-99.99,,,0.00,weatherlink.com 1.10,2013-03-04 01:32:00,
2013-03-03 20:47:00,27.0,19.0,30.03,NNW,336,0.0,-999.0,71,-99.99,,,0.00,weatherlink.com 1.10,2013-03-04 01:47:00,
2013-03-03 21:02:00,26.9,19.0,30.03,NNW,336,0.0,-999.0,72,-99.99,,,0.00,weatherlink.com 1.10,2013-03-04 02:02:00,
2013-03-03 21:17:00,26.6,19.0,30.03,NNW,336,0.0,-999.0,73,-99.99,,,0.00,weatherlink.com 1.10,2013-03-04 02:17:00,
2013-03-03 21:32:00,27.0,20.0,30.03,NNW,336,0.0,-999.0,74,-99.99,,,0.00,weatherlink.com 1.10,2013-03-04 02:32:00,
2013-03-03 21:47:00,27.4,20.0,30.04,NNW,336,0.0,-999.0,74,-99.99,,,0.00,weatherlink.com 1.10,2013-03-04 02:47:00,
2013-03-03 22:02:00,27.6,21.0,30.03,NNW,336,0.0,-999.0,75,-99.99,,,0.00,weatherlink.com 1.10,2013-03-04 03:02:00,
2013-03-03 22:17:00,27.5,21.0,30.03,NNW,336,0.0,-999.0,75,-99.99,,,0.00,weatherlink.com 1.10,2013-03-04 03:17:00,
2013-03-03 22:32:00,27.2,21.0,30.03,NNW,336,0.0,-999.0,76,-99.99,,,0.00,weatherlink.com 1.10,2013-03-04 03:32:00,
2013-03-03 22:47:00,26.6,20.0,30.03,NNW,336,0.0,-999.0,76,-99.99,,,0.00,weatherlink.com 1.10,2013-03-04 03:47:00,
2013-03-03 23:02:00,26.1,20.0,30.03,NNW,336,0.0,-999.0,76,-99.99,,,0.00,weatherlink.com 1.10,2013-03-04 04:02:00,
2013-03-03 23:18:00,25.6,19.0,30.03,NNW,336,0.0,-999.0,76,-99.99,,,0.00,weatherlink.com 1.10,2013-03-04 04:18:00,
2013-03-03 23:32:00,25.2,19.0,30.03,NNW,336,0.0,-999.0,76,-99.99,,,0.00,weatherlink.com 1.10,2013-03-04 04:32:00,
2013-03-03 23:47:00,24.8,18.0,30.04,NNW,336,0.0,-999.0,76,-99.99,,,0.00,weatherlink.com 1.10,2013-03-04 04:47:00,